Volver al catálogo

SKYCRAFT 4C

ActivoCienciaSSO
NORAD 64896·PAYLOAD·🇦🇺 Australia

Lanzado Jul 23, 2025 desde Vandenberg Space Force Base

Loading…

Próximos Pases (próximas 24 horas)

TLE

ActualizadoSource: Space-Track

Época: Sep 14, 2026, 09:48 UTC

1 64896U 25154H   26257.40857775  .00001661  00000-0  15468-3 0  9996
2 64896  97.6608 319.5880 0004522 338.4419  21.6611 14.95609269212485

Sigue SKYCRAFT 4C en tiempo real con AllMySat

Download on the App Store